Location: Brodeslavy
(49.9527°N, 13.5567°E)
Time: 04:50:41
(UTC+00:00)

Meteor 2-5 Rocket - Pass Details

Date: 17 June 2025
Orbit: 832 x 911 km, 81.2° (Epoch: 12 July)

Event Time Altitude Azimuth Distance (km) Brightness Sun altitude
Exits shadow 23:10:05 23° 203° (SSW) 1,815 4.9 -16.6°
Maximum altitude 23:13:52 72° 284° (WNW) 961 4.0 -16.6°
Drops below altitude 10° 23:19:49 10° 9° (N) 2,605 7.6 -16.6°
Sets 23:22:19 0° 12° (NNE) 3,545 8.7 -16.6°
